Location: DARK SKY Beskydy - Park tmavé oblohy, www.darkskybeskydy.cz
(49.4926°N, 18.5016°E)
Time: 12:32:26
(UTC+01:00)

Vanguard 3 - All Passes

Search period start: 22 February 2024 00:00
Search period end: 03 March 2024 00:00
Orbit: 508 x 3239 km, 33.3° (Epoch: 22 February)

Date Brightness Start Highest point End Pass type
(mag) Time Alt. Az. Time Alt. Az. Time Alt. Az.
22 Feb - 01:43:01 10° WSW 01:54:53 29° SSW 02:02:43 10° SSE night (unlit)
22 Feb - 17:54:39 10° SE 17:58:20 11° SE 18:01:59 10° ESE visible
22 Feb - 19:55:49 10° SSW 20:10:48 29° SSE 20:23:43 10° E visible
22 Feb - 22:07:25 10° SW 22:24:21 41° S 22:36:39 10° ESE visible
23 Feb - 00:22:29 10° WSW 00:37:23 38° SSW 00:47:10 10° SE visible
23 Feb - 02:39:45 10° WSW 02:48:28 20° SW 02:54:47 10° S night (unlit)
23 Feb - 18:40:03 10° S 18:52:19 21° SE 19:03:58 10° ESE visible
23 Feb - 20:48:45 10° SW 21:05:31 37° SSE 21:19:08 10° ESE visible
23 Feb - 23:02:22 10° WSW 23:19:11 42° S 23:30:51 10° ESE visible
24 Feb - 01:18:32 10° W 01:31:31 31° SSW 01:40:14 10° SSE night (unlit)
24 Feb - 03:40:09 10° WSW 03:41:32 10° SW 03:42:52 10° SW night (unlit)
24 Feb - 17:28:04 10° SSE 17:34:18 12° SE 17:40:35 10° ESE daylight
24 Feb - 19:31:17 10° SSW 19:46:42 31° SSE 20:00:41 10° E visible
24 Feb - 21:42:55 10° SW 22:00:27 43° S 22:13:50 10° ESE visible
24 Feb - 23:57:56 10° WSW 00:13:48 39° SSW 00:24:33 10° SE visible
25 Feb - 02:15:22 10° W 02:25:07 21° SW 02:32:14 10° S night (unlit)
25 Feb - 18:15:27 10° S 18:28:11 23° SE 18:40:50 10° E visible
25 Feb - 20:24:22 10° SW 20:41:26 39° SSE 20:56:05 10° ESE visible
25 Feb - 22:37:53 10° WSW 22:55:22 44° S 23:08:04 10° ESE visible
26 Feb - 00:54:01 10° W 01:07:59 32° SSW 01:17:37 10° SSE visible
26 Feb - 03:15:21 10° WSW 03:18:11 11° SW 03:20:46 10° SW night (unlit)
26 Feb - 17:02:44 10° SSE 17:10:13 14° SE 17:17:58 10° ESE daylight
26 Feb - 19:07:00 10° SSW 19:22:30 33° SSE 19:37:25 10° E visible
26 Feb - 21:18:34 10° WSW 21:36:24 44° S 21:50:51 10° ESE visible
26 Feb - 23:33:26 10° WSW 23:50:03 40° SSW 00:01:48 10° SE visible
27 Feb - 01:50:56 10° W 02:01:37 22° SW 02:09:31 10° S night (unlit)
27 Feb - 17:51:09 10° S 18:04:00 24° SE 18:17:25 10° E visible
27 Feb - 20:00:11 10° SW 20:17:15 41° SSE 20:32:50 10° ESE visible
27 Feb - 22:13:31 10° WSW 22:31:23 45° S 22:45:08 10° ESE visible
28 Feb - 00:29:31 10° W 00:44:17 32° SSW 00:54:49 10° SSE visible
28 Feb - 02:50:55 10° WSW 02:54:42 11° SW 02:58:05 10° SW night (unlit)
28 Feb - 16:38:02 10° SSE 16:46:07 15° SE 16:54:46 10° ESE daylight
28 Feb - 18:42:57 10° SSW 18:58:15 34° SSE 19:13:55 10° E visible
28 Feb - 20:54:23 10° WSW 21:12:14 46° S 21:27:41 10° ESE visible
28 Feb - 23:09:01 10° WSW 23:26:08 41° SSW 23:38:53 10° SE visible
29 Feb - 01:26:30 10° W 01:37:58 22° SW 01:46:39 10° S visible
29 Feb - 17:27:09 10° S 17:39:47 25° SE 17:53:44 10° E daylight
29 Feb - 19:36:12 10° SW 19:52:59 42° SSE 20:09:24 10° ESE visible
29 Feb - 21:49:17 10° WSW 22:07:16 46° S 22:22:01 10° ESE visible
01 Mar - 00:05:05 10° W 00:20:26 33° SSW 00:31:52 10° SSE visible
01 Mar - 02:26:39 10° WSW 02:31:04 12° SW 02:35:02 10° SW night (unlit)
01 Mar - 16:13:46 10° SSE 16:22:01 16° SE 16:31:11 10° ESE daylight
01 Mar - 18:19:07 10° SSW 18:33:59 35° SSE 18:50:13 10° E visible
01 Mar - 20:30:23 10° WSW 20:47:59 47° S 21:04:19 10° ESE visible
01 Mar - 22:44:43 10° W 23:02:04 41° SSW 23:15:47 10° SE visible
02 Mar - 01:02:07 10° W 01:14:09 22° SW 01:23:34 10° S visible
02 Mar - 17:03:23 10° S 17:15:36 26° SE 17:29:49 10° E daylight
02 Mar - 19:12:25 10° SW 19:28:40 43° SSE 19:45:45 10° ESE visible
02 Mar - 21:25:13 10° WSW 21:43:03 46° S 21:58:43 10° ESE visible
